Terug naar catalogus

STARLINK-37338

ActiefCommunicatieSSO
NORAD 68739·PAYLOAD·🇺🇸 United States

Gelanceerd Apr 15, 2026 vanaf Vandenberg Space Force Base

Loading…

Volgende Passages (komende 24 uur)

TLE

VersSource: CelesTrak SupGP

Epoch: Sep 14, 2026, 21:37 UTC

1 68739C 26082M   26257.90118056  .00033334  00000+0  10351-2 0  2577
2 68739  97.2847 120.1147 0002411  94.5141   8.4649 15.33409047    18

Volg STARLINK-37338 in realtime met AllMySat

Download on the App Store